Tracking 31027 objects as of 19-Jul-2025
HD Live streaming from Space Station
objects crossing your sky now

OPS 4682 DEB

Track OPS 4682 DEB now!
10-day predictions


NORAD ID: 38378
Int'l Code: 1965-027CF
Perigee: 1,231.4 km
Apogee: 1,283.0 km
Inclination: 90.2 °
Period: 110.5 minutes
Semi major axis: 7628 km
RCS: 0.0101 m2 (small)
Launch date: April 3, 1965
Source: United States (US)
Launch site: AIR FORCE WESTERN TEST RANGE (AFWTR)

Note: This is SATELLITE DEBRIS
Your satellite tracking list
FLOCK 4Q 34
Track 1 satellite(s)




NASA's NSSDC Master Catalog

Two Line Element Set (TLE):
1 38378U 65027CF  25199.32825520 -.00000499  00000-0 -16072-2 0  9994
2 38378  90.2426 331.9612 0033822 357.9547   2.1433 13.03088990575525
Source of the keplerian elements: AFSPC